Tracking 27423 objects as of 8-Jun-2023
HD Live streaming from Space Station
objects crossing your sky now

COSMOS 385

Track COSMOS 385 now!
10-day predictions
COSMOS 385 is classified as:


NORAD ID: 4799
Int'l Code: 1970-108A
Perigee: 978.8 km
Apogee: 985.7 km
Inclination: 74.0 °
Period: 104.6 minutes
Semi major axis: 7353 km
RCS: 3.9806 m2 (large)
Launch date: December 12, 1970
Source: Commonwealth of Independent States (former USSR) (CIS)
Launch site: PLESETSK MISSILE AND SPACE COMPLEX (PKMTR)
Your satellite tracking list
Your tracking list is empty




NASA's NSSDC Master Catalog

Two Line Element Set (TLE):
1 04799U 70108A   23158.89698317  .00000025  00000-0  48335-4 0  9999
2 04799  74.0225  71.0204 0004700 256.7835 170.9604 13.76838153636425
Source of the keplerian elements: AFSPC